Time,TemperatureF,DewpointF,PressureIn,WindDirection,WindDirectionDegrees,WindSpeedMPH,WindSpeedGustMPH,Humidity,HourlyPrecipIn,Conditions,Clouds,dailyrainin,SoftwareType,DateUTC
2013-10-16 00:01:00,72.4,66.2,29.99,SSE,159,0.0,4.0,81,0.00,,,0.00,WeatherCatV1.02B3,2013-10-16 05:01:00,
2013-10-16 00:06:00,72.4,66.2,29.99,SSE,153,0.0,1.0,81,0.00,,,0.00,WeatherCatV1.02B3,2013-10-16 05:06:00,
2013-10-16 00:11:00,72.3,66.5,29.99,SSE,153,0.0,0.0,82,0.00,,,0.00,WeatherCatV1.02B3,2013-10-16 05:11:00,
2013-10-16 00:16:00,72.2,66.4,29.99,SSE,153,0.0,1.0,82,0.00,,,0.00,WeatherCatV1.02B3,2013-10-16 05:16:00,
2013-10-16 00:21:00,72.2,66.4,29.98,SSE,153,0.0,0.0,82,0.00,,,0.00,WeatherCatV1.02B3,2013-10-16 05:21:00,
2013-10-16 00:26:00,72.1,66.3,29.98,SSE,153,4.0,4.0,82,0.00,,,0.00,WeatherCatV1.02B3,2013-10-16 05:26:00,
2013-10-16 00:31:00,72.1,66.3,29.98,SSE,153,0.0,4.0,82,0.00,,,0.00,WeatherCatV1.02B3,2013-10-16 05:31:00,
2013-10-16 00:36:00,72.0,66.2,29.98,SSE,153,0.0,4.0,82,0.00,,,0.00,WeatherCatV1.02B3,2013-10-16 05:36:00,
2013-10-16 00:41:00,71.9,66.1,29.98,SSE,154,1.0,6.0,82,0.00,,,0.00,WeatherCatV1.02B3,2013-10-16 05:41:00,
2013-10-16 00:46:00,71.9,66.4,29.98,SE,134,0.0,7.0,83,0.00,,,0.00,WeatherCatV1.02B3,2013-10-16 05:46:00,
2013-10-16 00:51:00,71.9,66.4,29.98,SE,134,0.0,2.0,83,0.00,,,0.00,WeatherCatV1.02B3,2013-10-16 05:51:00,
2013-10-16 00:56:00,71.8,66.3,29.97,SE,136,0.0,0.0,83,0.00,,,0.00,WeatherCatV1.02B3,2013-10-16 05:56:00,
2013-10-16 01:01:00,71.7,66.6,29.97,SE,136,0.0,2.0,84,0.00,,,0.00,WeatherCatV1.02B3,2013-10-16 06:01:00,
2013-10-16 01:06:00,71.7,66.6,29.98,SE,136,0.0,0.0,84,0.00,,,0.00,WeatherCatV1.02B3,2013-10-16 06:06:00,
2013-10-16 01:11:00,71.7,66.6,29.97,SE,136,0.0,1.0,84,0.00,,,0.00,WeatherCatV1.02B3,2013-10-16 06:11:00,
2013-10-16 01:16:00,71.7,66.6,29.97,SE,136,0.0,1.0,84,0.00,,,0.00,WeatherCatV1.02B3,2013-10-16 06:16:00,
2013-10-16 01:21:00,71.6,66.5,29.97,SE,136,0.0,1.0,84,0.00,,,0.00,WeatherCatV1.02B3,2013-10-16 06:21:00,
2013-10-16 01:26:00,71.6,66.8,29.97,SSE,162,2.0,2.0,85,0.00,,,0.00,WeatherCatV1.02B3,2013-10-16 06:26:00,
2013-10-16 01:31:00,71.6,66.8,29.97,SE,136,5.0,5.0,85,0.00,,,0.00,WeatherCatV1.02B3,2013-10-16 06:31:00,
2013-10-16 01:36:00,71.6,66.8,29.97,SE,136,0.0,0.0,85,0.00,,,0.00,WeatherCatV1.02B3,2013-10-16 06:36:00,
2013-10-16 01:41:00,71.6,66.8,29.97,SE,136,0.0,1.0,85,0.00,,,0.00,WeatherCatV1.02B3,2013-10-16 06:41:00,
2013-10-16 01:46:00,71.6,66.8,29.97,SE,136,1.0,4.0,85,0.00,,,0.00,WeatherCatV1.02B3,2013-10-16 06:46:00,
2013-10-16 01:51:00,71.5,66.7,29.98,SE,136,0.0,1.0,85,0.00,,,0.00,WeatherCatV1.02B3,2013-10-16 06:51:00,
2013-10-16 01:56:00,71.4,67.0,29.98,SE,136,0.0,1.0,86,0.00,,,0.00,WeatherCatV1.02B3,2013-10-16 06:56:00,
2013-10-16 02:01:00,71.4,67.0,29.97,SSE,151,0.0,5.0,86,0.00,,,0.00,WeatherCatV1.02B3,2013-10-16 07:01:00,
2013-10-16 02:06:00,71.3,66.9,29.97,SSE,157,0.0,1.0,86,0.00,,,0.00,WeatherCatV1.02B3,2013-10-16 07:06:00,
2013-10-16 02:11:00,71.3,66.9,29.98,SSE,160,4.0,4.0,86,0.00,,,0.00,WeatherCatV1.02B3,2013-10-16 07:11:00,
2013-10-16 02:16:00,71.3,67.2,29.97,SSE,161,0.0,2.0,87,0.00,,,0.00,WeatherCatV1.02B3,2013-10-16 07:16:00,
2013-10-16 02:21:00,71.2,67.1,29.97,SSE,155,0.0,4.0,87,0.00,,,0.00,WeatherCatV1.02B3,2013-10-16 07:21:00,
2013-10-16 02:26:00,71.1,67.0,29.97,SSE,161,0.0,1.0,87,0.00,,,0.00,WeatherCatV1.02B3,2013-10-16 07:26:00,
2013-10-16 02:31:00,71.1,67.0,29.97,SSE,158,0.0,0.0,87,0.00,,,0.00,WeatherCatV1.02B3,2013-10-16 07:31:00,
2013-10-16 02:36:00,71.0,66.9,29.97,SSE,162,0.0,0.0,87,0.00,,,0.00,WeatherCatV1.02B3,2013-10-16 07:36:00,
2013-10-16 02:41:00,70.9,66.8,29.97,SSE,165,0.0,1.0,87,0.00,,,0.00,WeatherCatV1.02B3,2013-10-16 07:41:00,
2013-10-16 02:46:00,70.9,67.2,29.97,South,184,0.0,0.0,88,0.00,,,0.00,WeatherCatV1.02B3,2013-10-16 07:46:00,
2013-10-16 02:51:00,70.8,67.1,29.97,SSE,163,0.0,4.0,88,0.00,,,0.00,WeatherCatV1.02B3,2013-10-16 07:51:00,
2013-10-16 02:56:00,70.8,67.1,29.97,SSE,164,0.0,1.0,88,0.00,,,0.00,WeatherCatV1.02B3,2013-10-16 07:56:00,
2013-10-16 03:01:00,70.7,67.0,29.97,SSE,164,0.0,0.0,88,0.00,,,0.00,WeatherCatV1.02B3,2013-10-16 08:01:00,
2013-10-16 03:06:00,70.7,67.3,29.96,SSE,161,0.0,1.0,89,0.00,,,0.00,WeatherCatV1.02B3,2013-10-16 08:06:00,
2013-10-16 03:11:00,70.7,67.3,29.97,SSE,161,0.0,0.0,89,0.00,,,0.00,WeatherCatV1.02B3,2013-10-16 08:11:00,
2013-10-16 03:16:00,70.6,67.2,29.96,SSE,162,0.0,1.0,89,0.00,,,0.00,WeatherCatV1.02B3,2013-10-16 08:16:00,
2013-10-16 03:21:00,70.6,67.2,29.96,SSE,162,0.0,2.0,89,0.00,,,0.00,WeatherCatV1.02B3,2013-10-16 08:21:00,
2013-10-16 03:26:00,70.6,67.2,29.96,SSE,162,0.0,0.0,89,0.00,,,0.00,WeatherCatV1.02B3,2013-10-16 08:26:00,
2013-10-16 03:31:00,70.6,67.2,29.96,SE,137,0.0,2.0,89,0.00,,,0.00,WeatherCatV1.02B3,2013-10-16 08:31:00,
2013-10-16 03:36:00,70.6,67.2,29.96,SE,137,0.0,1.0,89,0.00,,,0.00,WeatherCatV1.02B3,2013-10-16 08:36:00,
2013-10-16 03:41:00,70.5,67.1,29.96,SE,137,0.0,1.0,89,0.00,,,0.00,WeatherCatV1.02B3,2013-10-16 08:41:00,
2013-10-16 03:46:00,70.5,67.4,29.95,SE,137,2.0,2.0,90,0.00,,,0.00,WeatherCatV1.02B3,2013-10-16 08:46:00,
2013-10-16 03:51:00,70.5,67.4,29.96,SE,137,0.0,0.0,90,0.00,,,0.00,WeatherCatV1.02B3,2013-10-16 08:51:00,
2013-10-16 03:56:00,70.5,67.4,29.96,SE,145,0.0,2.0,90,0.00,,,0.00,WeatherCatV1.02B3,2013-10-16 08:56:00,
2013-10-16 04:01:00,70.5,67.4,29.96,SE,145,0.0,0.0,90,0.00,,,0.00,WeatherCatV1.02B3,2013-10-16 09:01:00,
2013-10-16 04:06:00,70.6,67.5,29.96,SE,145,1.0,2.0,90,0.00,,,0.00,WeatherCatV1.02B3,2013-10-16 09:06:00,
2013-10-16 04:11:00,70.6,67.5,29.96,South,173,0.0,2.0,90,0.00,,,0.00,WeatherCatV1.02B3,2013-10-16 09:11:00,
2013-10-16 04:17:00,70.6,67.5,29.95,SSE,162,0.0,1.0,90,0.00,,,0.00,WeatherCatV1.02B3,2013-10-16 09:17:00,
2013-10-16 04:22:00,70.7,67.6,29.95,SSE,167,0.0,1.0,90,0.00,,,0.00,WeatherCatV1.02B3,2013-10-16 09:22:00,
2013-10-16 04:27:00,70.8,67.7,29.96,SSE,167,0.0,1.0,90,0.00,,,0.00,WeatherCatV1.02B3,2013-10-16 09:27:00,
2013-10-16 04:32:00,70.8,67.7,29.95,SSE,166,0.0,1.0,90,0.00,,,0.00,WeatherCatV1.02B3,2013-10-16 09:32:00,
2013-10-16 04:37:00,70.9,67.8,29.95,SSE,166,0.0,1.0,90,0.00,,,0.00,WeatherCatV1.02B3,2013-10-16 09:37:00,
2013-10-16 04:42:00,70.9,67.8,29.95,SSE,165,0.0,4.0,90,0.00,,,0.00,WeatherCatV1.02B3,2013-10-16 09:42:00,
2013-10-16 04:47:00,71.0,67.9,29.95,SSE,165,0.0,0.0,90,0.00,,,0.00,WeatherCatV1.02B3,2013-10-16 09:47:00,
2013-10-16 04:52:00,71.0,67.9,29.95,SSE,167,0.0,2.0,90,0.00,,,0.00,WeatherCatV1.02B3,2013-10-16 09:52:00,
2013-10-16 04:57:00,71.0,67.9,29.96,South,180,0.0,1.0,90,0.00,,,0.00,WeatherCatV1.02B3,2013-10-16 09:57:00,
2013-10-16 05:02:00,71.0,67.9,29.96,South,180,0.0,0.0,90,0.00,,,0.00,WeatherCatV1.02B3,2013-10-16 10:02:00,
2013-10-16 05:07:00,71.1,68.0,29.96,South,177,0.0,1.0,90,0.00,,,0.00,WeatherCatV1.02B3,2013-10-16 10:07:00,
2013-10-16 05:12:00,71.1,68.0,29.96,South,174,0.0,1.0,90,0.00,,,0.00,WeatherCatV1.02B3,2013-10-16 10:12:00,
2013-10-16 05:17:00,71.2,68.1,29.96,South,174,0.0,1.0,90,0.00,,,0.00,WeatherCatV1.02B3,2013-10-16 10:17:00,
2013-10-16 05:22:00,71.2,68.1,29.96,South,174,1.0,1.0,90,0.00,,,0.00,WeatherCatV1.02B3,2013-10-16 10:22:00,
2013-10-16 05:27:00,71.3,68.2,29.96,SSE,157,0.0,4.0,90,0.00,,,0.00,WeatherCatV1.02B3,2013-10-16 10:27:00,
2013-10-16 05:32:00,71.3,68.2,29.97,SSE,160,0.0,1.0,90,0.00,,,0.00,WeatherCatV1.02B3,2013-10-16 10:32:00,
2013-10-16 05:37:00,71.3,68.2,29.97,SSE,160,0.0,1.0,90,0.00,,,0.00,WeatherCatV1.02B3,2013-10-16 10:37:00,
2013-10-16 05:42:00,71.4,68.6,29.97,SSE,160,0.0,2.0,91,0.00,,,0.00,WeatherCatV1.02B3,2013-10-16 10:42:00,
2013-10-16 05:47:00,71.3,68.5,29.97,SSE,163,0.0,0.0,91,0.00,,,0.00,WeatherCatV1.02B3,2013-10-16 10:47:00,
2013-10-16 05:52:00,71.3,68.5,29.97,SSE,163,0.0,1.0,91,0.00,,,0.00,WeatherCatV1.02B3,2013-10-16 10:52:00,
2013-10-16 05:57:00,71.1,68.3,29.97,SSE,163,0.0,1.0,91,0.00,,,0.00,WeatherCatV1.02B3,2013-10-16 10:57:00,
2013-10-16 06:02:00,71.0,68.6,29.97,SSE,163,0.0,1.0,92,0.00,,,0.00,WeatherCatV1.02B3,2013-10-16 11:02:00,
2013-10-16 06:07:00,70.9,68.5,29.97,SSE,163,0.0,1.0,92,0.00,,,0.00,WeatherCatV1.02B3,2013-10-16 11:07:00,
2013-10-16 06:12:00,70.8,68.4,29.97,SE,134,0.0,6.0,92,0.00,,,0.00,WeatherCatV1.02B3,2013-10-16 11:12:00,
2013-10-16 06:17:00,70.7,68.6,29.97,SSE,150,0.0,4.0,93,0.00,,,0.00,WeatherCatV1.02B3,2013-10-16 11:17:00,
2013-10-16 06:22:00,70.6,68.5,29.97,SSE,150,0.0,1.0,93,0.00,,,0.00,WeatherCatV1.02B3,2013-10-16 11:22:00,
2013-10-16 06:27:00,70.5,68.4,29.97,SSE,150,0.0,2.0,93,0.00,,,0.00,WeatherCatV1.02B3,2013-10-16 11:27:00,
2013-10-16 06:32:00,70.5,68.4,29.97,SSE,150,0.0,2.0,93,0.00,,,0.00,WeatherCatV1.02B3,2013-10-16 11:32:00,
2013-10-16 06:37:00,70.4,68.3,29.98,SSE,150,0.0,1.0,93,0.00,,,0.00,WeatherCatV1.02B3,2013-10-16 11:37:00,
2013-10-16 06:42:00,70.4,68.3,29.98,SSE,150,0.0,0.0,93,0.00,,,0.00,WeatherCatV1.02B3,2013-10-16 11:42:00,
2013-10-16 06:47:00,70.4,68.3,29.97,SSE,150,0.0,0.0,93,0.00,,,0.00,WeatherCatV1.02B3,2013-10-16 11:47:00,
2013-10-16 06:52:00,70.3,68.5,29.98,SSE,150,0.0,0.0,94,0.00,,,0.00,WeatherCatV1.02B3,2013-10-16 11:52:00,
2013-10-16 06:57:00,70.3,68.5,29.98,SSE,152,0.0,1.0,94,0.00,,,0.00,WeatherCatV1.02B3,2013-10-16 11:57:00,
2013-10-16 07:02:00,70.3,68.5,29.98,SSE,152,0.0,0.0,94,0.00,,,0.00,WeatherCatV1.02B3,2013-10-16 12:02:00,
2013-10-16 07:07:00,70.3,68.5,29.98,SSE,153,0.0,0.0,94,0.00,,,0.00,WeatherCatV1.02B3,2013-10-16 12:07:00,
2013-10-16 07:12:00,70.3,68.5,29.98,SSE,153,0.0,0.0,94,0.00,,,0.00,WeatherCatV1.02B3,2013-10-16 12:12:00,
2013-10-16 07:17:00,70.3,68.5,29.99,SSE,153,0.0,2.0,94,0.00,,,0.00,WeatherCatV1.02B3,2013-10-16 12:17:00,
2013-10-16 07:22:00,70.3,68.5,29.99,SSE,153,0.0,1.0,94,0.00,,,0.00,WeatherCatV1.02B3,2013-10-16 12:22:00,
2013-10-16 07:27:00,70.3,68.5,29.99,SSE,153,0.0,0.0,94,0.00,,,0.00,WeatherCatV1.02B3,2013-10-16 12:27:00,
2013-10-16 07:32:00,70.3,68.5,29.98,SSE,153,0.0,2.0,94,0.00,,,0.00,WeatherCatV1.02B3,2013-10-16 12:32:00,
2013-10-16 07:37:00,70.3,68.5,29.98,SSE,153,2.0,2.0,94,0.00,,,0.00,WeatherCatV1.02B3,2013-10-16 12:37:00,
2013-10-16 07:42:00,70.3,68.5,29.99,SSE,153,0.0,0.0,94,0.00,,,0.00,WeatherCatV1.02B3,2013-10-16 12:42:00,
2013-10-16 07:47:00,70.2,68.4,29.99,SSE,153,0.0,0.0,94,0.00,,,0.00,WeatherCatV1.02B3,2013-10-16 12:47:00,
2013-10-16 07:52:00,70.3,68.5,29.99,SSE,153,0.0,1.0,94,0.00,,,0.00,WeatherCatV1.02B3,2013-10-16 12:52:00,
2013-10-16 07:57:00,70.3,68.5,29.99,SSE,153,0.0,1.0,94,0.00,,,0.00,WeatherCatV1.02B3,2013-10-16 12:57:00,
2013-10-16 08:02:00,70.3,68.5,29.99,SSE,153,4.0,4.0,94,0.00,,,0.00,WeatherCatV1.02B3,2013-10-16 13:02:00,
2013-10-16 08:07:00,70.3,68.5,29.99,SSE,153,0.0,2.0,94,0.00,,,0.00,WeatherCatV1.02B3,2013-10-16 13:07:00,
2013-10-16 08:12:00,70.3,68.5,29.99,SSE,153,0.0,1.0,94,0.00,,,0.00,WeatherCatV1.02B3,2013-10-16 13:12:00,
2013-10-16 08:17:00,70.3,68.5,30.00,SSE,153,0.0,1.0,94,0.00,,,0.00,WeatherCatV1.02B3,2013-10-16 13:17:00,
2013-10-16 08:22:00,70.4,68.6,30.00,SSE,153,0.0,2.0,94,0.00,,,0.00,WeatherCatV1.02B3,2013-10-16 13:22:00,
2013-10-16 08:27:00,70.4,68.6,30.00,SSE,153,0.0,0.0,94,0.00,,,0.00,WeatherCatV1.02B3,2013-10-16 13:27:00,
2013-10-16 08:32:00,70.4,68.6,30.00,SSE,157,1.0,4.0,94,0.00,,,0.00,WeatherCatV1.02B3,2013-10-16 13:32:00,
2013-10-16 08:37:00,70.5,68.7,30.00,SSE,164,0.0,4.0,94,0.00,,,0.00,WeatherCatV1.02B3,2013-10-16 13:37:00,
2013-10-16 08:42:00,70.5,68.7,30.00,South,171,0.0,0.0,94,0.00,,,0.00,WeatherCatV1.02B3,2013-10-16 13:42:00,
2013-10-16 08:47:00,70.6,68.8,30.00,SE,137,0.0,5.0,94,0.00,,,0.00,WeatherCatV1.02B3,2013-10-16 13:47:00,
2013-10-16 08:52:00,70.6,68.8,30.01,South,170,0.0,1.0,94,0.00,,,0.00,WeatherCatV1.02B3,2013-10-16 13:52:00,
2013-10-16 08:57:00,70.7,68.9,30.01,South,169,0.0,1.0,94,0.00,,,0.00,WeatherCatV1.02B3,2013-10-16 13:57:00,
2013-10-16 09:02:00,70.8,69.0,30.01,SSE,165,0.0,2.0,94,0.00,,,0.00,WeatherCatV1.02B3,2013-10-16 14:02:00,
2013-10-16 09:07:00,71.0,69.2,30.01,SSE,167,0.0,2.0,94,0.00,,,0.00,WeatherCatV1.02B3,2013-10-16 14:07:00,
2013-10-16 09:12:00,71.2,69.4,30.01,SSE,167,0.0,1.0,94,0.00,,,0.00,WeatherCatV1.02B3,2013-10-16 14:12:00,
2013-10-16 09:17:00,71.4,69.6,30.00,SSE,165,0.0,4.0,94,0.00,,,0.00,WeatherCatV1.02B3,2013-10-16 14:17:00,
2013-10-16 09:22:00,71.7,70.2,30.00,SSE,156,0.0,1.0,95,0.00,,,0.00,WeatherCatV1.02B3,2013-10-16 14:22:00,
2013-10-16 09:27:00,72.1,70.3,30.00,SSE,163,0.0,5.0,94,0.00,,,0.00,WeatherCatV1.02B3,2013-10-16 14:27:00,
2013-10-16 09:32:00,72.4,70.6,30.00,SSE,165,0.0,2.0,94,0.00,,,0.00,WeatherCatV1.02B3,2013-10-16 14:32:00,
2013-10-16 09:37:00,72.6,70.5,30.00,SSE,165,4.0,4.0,93,0.00,,,0.00,WeatherCatV1.02B3,2013-10-16 14:37:00,
2013-10-16 09:42:00,72.9,70.8,30.00,South,171,2.0,4.0,93,0.00,,,0.00,WeatherCatV1.02B3,2013-10-16 14:42:00,
2013-10-16 09:47:00,73.1,70.6,30.00,SSE,157,2.0,4.0,92,0.00,,,0.00,WeatherCatV1.02B3,2013-10-16 14:47:00,
2013-10-16 09:52:00,73.3,70.8,30.00,SSE,157,0.0,5.0,92,0.00,,,0.00,WeatherCatV1.02B3,2013-10-16 14:52:00,
2013-10-16 09:57:00,73.6,70.8,30.00,SE,136,0.0,5.0,91,0.00,,,0.00,WeatherCatV1.02B3,2013-10-16 14:57:00,
2013-10-16 10:02:00,73.9,70.8,30.00,South,190,1.0,1.0,90,0.00,,,0.00,WeatherCatV1.02B3,2013-10-16 15:02:00,
2013-10-16 10:07:00,74.2,71.1,30.00,South,190,0.0,0.0,90,0.00,,,0.00,WeatherCatV1.02B3,2013-10-16 15:07:00,
2013-10-16 10:12:00,74.4,70.9,30.00,South,176,0.0,5.0,89,0.00,,,0.00,WeatherCatV1.02B3,2013-10-16 15:12:00,
2013-10-16 10:17:00,74.6,70.8,30.00,SSE,164,0.0,0.0,88,0.00,,,0.00,WeatherCatV1.02B3,2013-10-16 15:17:00,
2013-10-16 10:22:00,74.7,70.9,30.00,SSE,150,0.0,2.0,88,0.00,,,0.00,WeatherCatV1.02B3,2013-10-16 15:22:00,
2013-10-16 10:27:00,74.8,71.0,30.00,SSE,153,0.0,6.0,88,0.00,,,0.00,WeatherCatV1.02B3,2013-10-16 15:27:00,
2013-10-16 10:32:00,74.8,71.0,30.00,SSE,162,0.0,7.0,88,0.00,,,0.00,WeatherCatV1.02B3,2013-10-16 15:32:00,
2013-10-16 10:37:00,74.9,71.1,30.00,SSE,159,0.0,4.0,88,0.00,,,0.00,WeatherCatV1.02B3,2013-10-16 15:37:00,
2013-10-16 10:42:00,75.1,71.3,30.00,SE,135,0.0,1.0,88,0.00,,,0.00,WeatherCatV1.02B3,2013-10-16 15:42:00,
2013-10-16 10:47:00,75.2,71.1,30.00,SE,128,0.0,4.0,87,0.00,,,0.00,WeatherCatV1.02B3,2013-10-16 15:47:00,
2013-10-16 10:52:00,75.3,71.2,30.00,SSE,148,1.0,1.0,87,0.00,,,0.00,WeatherCatV1.02B3,2013-10-16 15:52:00,
2013-10-16 10:57:00,75.5,71.3,30.00,SSE,148,0.0,0.0,87,0.00,,,0.00,WeatherCatV1.02B3,2013-10-16 15:57:00,
2013-10-16 11:02:00,75.6,71.1,30.00,SSE,154,0.0,1.0,86,0.00,,,0.00,WeatherCatV1.02B3,2013-10-16 16:02:00,
2013-10-16 11:07:00,75.7,71.2,30.00,SSE,160,0.0,7.0,86,0.00,,,0.00,WeatherCatV1.02B3,2013-10-16 16:07:00,
2013-10-16 11:12:00,75.7,70.9,29.99,SSW,197,0.0,4.0,85,0.00,,,0.00,WeatherCatV1.02B3,2013-10-16 16:12:00,
2013-10-16 11:17:00,75.8,71.0,29.99,South,184,0.0,1.0,85,0.00,,,0.00,WeatherCatV1.02B3,2013-10-16 16:17:00,
2013-10-16 11:22:00,75.7,70.9,29.99,SSE,150,1.0,4.0,85,0.00,,,0.00,WeatherCatV1.02B3,2013-10-16 16:22:00,
2013-10-16 11:27:00,75.8,71.0,29.99,SSE,153,0.0,0.0,85,0.00,,,0.00,WeatherCatV1.02B3,2013-10-16 16:27:00,
2013-10-16 11:32:00,75.9,71.1,29.99,SSE,153,0.0,1.0,85,0.00,,,0.00,WeatherCatV1.02B3,2013-10-16 16:32:00,
2013-10-16 11:37:00,76.0,71.2,29.99,SSE,157,0.0,4.0,85,0.00,,,0.00,WeatherCatV1.02B3,2013-10-16 16:37:00,
2013-10-16 11:42:00,76.2,71.3,29.99,SSE,156,0.0,6.0,85,0.00,,,0.00,WeatherCatV1.02B3,2013-10-16 16:42:00,
2013-10-16 11:47:00,76.2,71.0,29.99,South,173,2.0,4.0,84,0.00,,,0.00,WeatherCatV1.02B3,2013-10-16 16:47:00,
2013-10-16 11:52:00,76.2,71.0,29.99,SSE,167,0.0,0.0,84,0.00,,,0.00,WeatherCatV1.02B3,2013-10-16 16:52:00,
2013-10-16 11:57:00,76.2,70.6,29.98,SSW,205,0.0,0.0,83,0.00,,,0.00,WeatherCatV1.02B3,2013-10-16 16:57:00,
2013-10-16 12:02:00,76.2,71.0,29.98,SSW,192,0.0,5.0,84,0.00,,,0.00,WeatherCatV1.02B3,2013-10-16 17:02:00,
2013-10-16 12:07:00,76.2,71.0,29.98,SSW,192,0.0,2.0,84,0.00,,,0.00,WeatherCatV1.02B3,2013-10-16 17:07:00,
2013-10-16 12:12:00,76.2,71.0,29.98,SSE,153,0.0,0.0,84,0.00,,,0.00,WeatherCatV1.02B3,2013-10-16 17:12:00,
2013-10-16 12:17:00,76.0,70.4,29.99,South,178,0.0,2.0,83,0.00,,,0.00,WeatherCatV1.02B3,2013-10-16 17:17:00,
2013-10-16 12:22:00,75.9,70.7,29.99,West,281,0.0,2.0,84,0.00,,,0.00,WeatherCatV1.02B3,2013-10-16 17:22:00,
2013-10-16 12:27:00,74.7,70.2,29.99,West,271,0.0,1.0,86,0.93,,,0.05,WeatherCatV1.02B3,2013-10-16 17:27:00,
2013-10-16 12:32:00,74.0,70.2,29.98,WNW,286,0.0,0.0,88,0.20,,,0.07,WeatherCatV1.02B3,2013-10-16 17:32:00,
2013-10-16 12:37:00,73.2,69.8,29.98,West,278,0.0,0.0,89,0.09,,,0.08,WeatherCatV1.02B3,2013-10-16 17:37:00,
2013-10-16 12:42:00,72.6,69.5,29.98,WNW,283,0.0,1.0,90,0.09,,,0.08,WeatherCatV1.02B3,2013-10-16 17:42:00,
2013-10-16 12:47:00,72.3,69.5,29.97,WNW,283,0.0,0.0,91,0.05,,,0.08,WeatherCatV1.02B3,2013-10-16 17:47:00,
2013-10-16 12:52:00,72.3,69.8,29.97,WNW,283,0.0,0.0,92,0.04,,,0.08,WeatherCatV1.02B3,2013-10-16 17:52:00,
2013-10-16 12:57:00,72.5,70.4,29.97,WNW,283,0.0,0.0,93,0.00,,,0.08,WeatherCatV1.02B3,2013-10-16 17:57:00,
2013-10-16 13:02:00,72.6,70.5,29.96,WNW,283,0.0,1.0,93,0.00,,,0.08,WeatherCatV1.02B3,2013-10-16 18:02:00,
2013-10-16 13:07:00,72.6,70.5,29.96,WNW,283,0.0,1.0,93,0.00,,,0.08,WeatherCatV1.02B3,2013-10-16 18:07:00,
2013-10-16 13:12:00,72.4,70.3,29.96,WNW,283,0.0,1.0,93,0.00,,,0.08,WeatherCatV1.02B3,2013-10-16 18:12:00,
2013-10-16 13:17:00,72.4,70.3,29.96,WNW,283,0.0,2.0,93,0.00,,,0.08,WeatherCatV1.02B3,2013-10-16 18:17:00,
2013-10-16 13:22:00,72.3,70.5,29.96,WNW,283,0.0,1.0,94,0.00,,,0.08,WeatherCatV1.02B3,2013-10-16 18:22:00,
2013-10-16 13:27:00,72.3,70.5,29.96,WNW,283,0.0,1.0,94,0.00,,,0.09,WeatherCatV1.02B3,2013-10-16 18:27:00,
2013-10-16 13:32:00,72.3,70.5,29.96,WNW,283,0.0,0.0,94,0.11,,,0.10,WeatherCatV1.02B3,2013-10-16 18:32:00,
2013-10-16 13:37:00,72.2,70.4,29.95,SW,220,0.0,3.0,94,0.09,,,0.11,WeatherCatV1.02B3,2013-10-16 18:37:00,
2013-10-16 13:42:00,72.1,70.3,29.95,West,281,0.0,2.0,94,0.11,,,0.12,WeatherCatV1.02B3,2013-10-16 18:42:00,
2013-10-16 13:47:00,72.0,70.2,29.95,WSW,254,0.0,0.0,94,0.07,,,0.12,WeatherCatV1.02B3,2013-10-16 18:47:00,
2013-10-16 13:52:00,72.0,70.2,29.95,WSW,254,0.0,1.0,94,0.05,,,0.12,WeatherCatV1.02B3,2013-10-16 18:52:00,
2013-10-16 13:57:00,72.0,70.2,29.95,WSW,255,0.0,1.0,94,0.00,,,0.12,WeatherCatV1.02B3,2013-10-16 18:57:00,
2013-10-16 14:02:00,71.9,70.1,29.95,WSW,255,0.0,1.0,94,0.00,,,0.12,WeatherCatV1.02B3,2013-10-16 19:02:00,
2013-10-16 14:07:00,71.9,70.4,29.95,WNW,294,0.0,2.0,95,0.18,,,0.14,WeatherCatV1.02B3,2013-10-16 19:07:00,
2013-10-16 14:12:00,71.7,70.2,29.95,WNW,286,0.0,1.0,95,0.13,,,0.15,WeatherCatV1.02B3,2013-10-16 19:12:00,
2013-10-16 14:17:00,71.6,70.1,29.95,WNW,286,0.0,0.0,95,0.36,,,0.18,WeatherCatV1.02B3,2013-10-16 19:17:00,
2013-10-16 14:22:00,71.5,70.0,29.94,WNW,286,0.0,0.0,95,0.12,,,0.19,WeatherCatV1.02B3,2013-10-16 19:22:00,
2013-10-16 14:27:00,71.6,70.1,29.94,WNW,286,0.0,0.0,95,0.11,,,0.19,WeatherCatV1.02B3,2013-10-16 19:27:00,
2013-10-16 14:32:00,71.7,70.2,29.94,WNW,286,0.0,0.0,95,0.06,,,0.19,WeatherCatV1.02B3,2013-10-16 19:32:00,
2013-10-16 14:37:00,71.5,70.0,29.94,WNW,286,0.0,0.0,95,0.06,,,0.20,WeatherCatV1.02B3,2013-10-16 19:37:00,
2013-10-16 14:42:00,71.4,69.9,29.94,WNW,286,0.0,0.0,95,0.06,,,0.20,WeatherCatV1.02B3,2013-10-16 19:42:00,
2013-10-16 14:47:00,71.5,70.0,29.94,WNW,286,0.0,0.0,95,0.18,,,0.22,WeatherCatV1.02B3,2013-10-16 19:47:00,
2013-10-16 14:52:00,71.5,70.0,29.93,SE,142,0.0,2.0,95,0.07,,,0.22,WeatherCatV1.02B3,2013-10-16 19:52:00,
2013-10-16 14:57:00,71.5,70.0,29.93,SE,142,0.0,0.0,95,0.04,,,0.22,WeatherCatV1.02B3,2013-10-16 19:57:00,
2013-10-16 15:02:00,71.5,70.0,29.93,SE,142,0.0,2.0,95,0.00,,,0.22,WeatherCatV1.02B3,2013-10-16 20:02:00,
2013-10-16 15:07:00,71.5,70.0,29.93,SE,142,0.0,0.0,95,0.00,,,0.22,WeatherCatV1.02B3,2013-10-16 20:07:00,
2013-10-16 15:12:00,71.5,70.0,29.93,SE,142,0.0,0.0,95,0.00,,,0.22,WeatherCatV1.02B3,2013-10-16 20:12:00,
2013-10-16 15:17:00,71.4,69.9,29.94,SE,142,0.0,0.0,95,0.00,,,0.22,WeatherCatV1.02B3,2013-10-16 20:17:00,
2013-10-16 15:22:00,71.5,70.0,29.94,SE,142,0.0,0.0,95,0.00,,,0.22,WeatherCatV1.02B3,2013-10-16 20:22:00,
2013-10-16 15:27:00,71.6,70.1,29.94,SE,142,0.0,0.0,95,0.00,,,0.22,WeatherCatV1.02B3,2013-10-16 20:27:00,
2013-10-16 15:32:00,71.6,70.1,29.94,SE,142,0.0,0.0,95,0.00,,,0.22,WeatherCatV1.02B3,2013-10-16 20:32:00,
2013-10-16 15:37:00,71.6,70.1,29.94,SE,142,0.0,0.0,95,0.00,,,0.22,WeatherCatV1.02B3,2013-10-16 20:37:00,
2013-10-16 15:42:00,71.7,70.2,29.94,SE,142,0.0,0.0,95,0.00,,,0.22,WeatherCatV1.02B3,2013-10-16 20:42:00,
2013-10-16 15:47:00,71.8,70.3,29.94,SE,142,0.0,0.0,95,0.00,,,0.23,WeatherCatV1.02B3,2013-10-16 20:47:00,
2013-10-16 15:52:00,71.9,70.4,29.94,SE,142,0.0,0.0,95,0.00,,,0.23,WeatherCatV1.02B3,2013-10-16 20:52:00,
2013-10-16 15:57:00,72.0,70.5,29.94,SE,142,0.0,0.0,95,0.00,,,0.23,WeatherCatV1.02B3,2013-10-16 20:57:00,
2013-10-16 16:02:00,72.1,70.6,29.94,SE,142,0.0,0.0,95,0.00,,,0.23,WeatherCatV1.02B3,2013-10-16 21:02:00,
2013-10-16 16:07:00,72.2,70.7,29.94,SE,142,0.0,0.0,95,0.00,,,0.23,WeatherCatV1.02B3,2013-10-16 21:07:00,
2013-10-16 16:12:00,72.3,70.8,29.94,SE,142,0.0,0.0,95,0.00,,,0.23,WeatherCatV1.02B3,2013-10-16 21:12:00,
2013-10-16 16:17:00,72.2,70.7,29.94,SE,142,0.0,0.0,95,0.00,,,0.23,WeatherCatV1.02B3,2013-10-16 21:17:00,
2013-10-16 16:22:00,72.2,70.7,29.94,SE,142,0.0,0.0,95,0.00,,,0.23,WeatherCatV1.02B3,2013-10-16 21:22:00,
2013-10-16 16:27:00,72.2,70.7,29.94,SE,142,0.0,0.0,95,0.00,,,0.23,WeatherCatV1.02B3,2013-10-16 21:27:00,
2013-10-16 16:32:00,72.4,70.9,29.94,SE,142,0.0,0.0,95,0.00,,,0.23,WeatherCatV1.02B3,2013-10-16 21:32:00,
2013-10-16 16:37:00,72.3,70.8,29.94,SE,142,0.0,0.0,95,0.00,,,0.23,WeatherCatV1.02B3,2013-10-16 21:37:00,
2013-10-16 16:42:00,72.2,70.7,29.94,SE,142,0.0,0.0,95,0.00,,,0.23,WeatherCatV1.02B3,2013-10-16 21:42:00,
2013-10-16 16:47:00,72.2,70.7,29.94,SE,142,0.0,0.0,95,0.00,,,0.23,WeatherCatV1.02B3,2013-10-16 21:47:00,
2013-10-16 16:52:00,72.2,70.7,29.94,SE,142,0.0,0.0,95,0.00,,,0.23,WeatherCatV1.02B3,2013-10-16 21:52:00,
2013-10-16 16:57:00,72.1,70.6,29.94,SE,142,0.0,0.0,95,0.00,,,0.23,WeatherCatV1.02B3,2013-10-16 21:57:00,
2013-10-16 17:02:00,72.1,70.6,29.94,NNE,14,0.0,0.0,95,0.00,,,0.23,WeatherCatV1.02B3,2013-10-16 22:02:00,
2013-10-16 17:07:00,72.1,70.6,29.94,NNE,14,0.0,0.0,95,0.00,,,0.23,WeatherCatV1.02B3,2013-10-16 22:07:00,
2013-10-16 17:12:00,72.1,70.6,29.94,NNE,14,0.0,1.0,95,0.00,,,0.23,WeatherCatV1.02B3,2013-10-16 22:12:00,
2013-10-16 17:17:00,72.0,70.5,29.94,NNE,14,0.0,0.0,95,0.00,,,0.23,WeatherCatV1.02B3,2013-10-16 22:17:00,
2013-10-16 17:22:00,71.9,70.4,29.94,NW,304,0.0,3.0,95,0.00,,,0.23,WeatherCatV1.02B3,2013-10-16 22:22:00,
2013-10-16 17:27:00,71.5,70.0,29.94,North,350,2.0,5.0,95,0.00,,,0.23,WeatherCatV1.02B3,2013-10-16 22:27:00,
2013-10-16 17:32:00,70.6,68.8,29.94,NNW,338,0.0,3.0,94,0.00,,,0.23,WeatherCatV1.02B3,2013-10-16 22:32:00,
2013-10-16 17:37:00,69.9,68.1,29.94,NW,326,0.0,1.0,94,0.00,,,0.23,WeatherCatV1.02B3,2013-10-16 22:37:00,
2013-10-16 17:42:00,69.6,68.1,29.94,NNW,344,0.0,1.0,95,0.00,,,0.23,WeatherCatV1.02B3,2013-10-16 22:42:00,
2013-10-16 17:47:00,69.5,68.0,29.94,NNE,12,0.0,3.0,95,0.00,,,0.23,WeatherCatV1.02B3,2013-10-16 22:47:00,
2013-10-16 17:52:00,69.1,67.6,29.94,NNW,346,0.0,1.0,95,0.00,,,0.23,WeatherCatV1.02B3,2013-10-16 22:52:00,
2013-10-16 17:57:00,68.8,67.3,29.95,NNW,346,0.0,1.0,95,0.00,,,0.23,WeatherCatV1.02B3,2013-10-16 22:57:00,
2013-10-16 18:02:00,68.6,67.1,29.95,NNW,346,0.0,0.0,95,0.00,,,0.23,WeatherCatV1.02B3,2013-10-16 23:02:00,
2013-10-16 18:07:00,68.5,67.0,29.95,NNW,342,0.0,3.0,95,0.00,,,0.23,WeatherCatV1.02B3,2013-10-16 23:07:00,
2013-10-16 18:12:00,68.4,66.9,29.95,NNW,342,0.0,0.0,95,0.00,,,0.23,WeatherCatV1.02B3,2013-10-16 23:12:00,
2013-10-16 18:17:00,68.3,66.8,29.95,NW,320,0.0,3.0,95,0.00,,,0.23,WeatherCatV1.02B3,2013-10-16 23:17:00,
2013-10-16 18:22:00,68.1,66.6,29.95,NNW,335,0.0,0.0,95,0.00,,,0.23,WeatherCatV1.02B3,2013-10-16 23:22:00,
2013-10-16 18:27:00,67.9,66.4,29.96,North,0,0.0,1.0,95,0.00,,,0.23,WeatherCatV1.02B3,2013-10-16 23:27:00,
2013-10-16 18:32:00,67.7,66.2,29.96,NW,304,0.0,2.0,95,0.00,,,0.23,WeatherCatV1.02B3,2013-10-16 23:32:00,
2013-10-16 18:37:00,67.3,65.8,29.96,WNW,290,0.0,1.0,95,0.00,,,0.23,WeatherCatV1.02B3,2013-10-16 23:37:00,
2013-10-16 18:42:00,67.1,65.6,29.95,WNW,289,0.0,0.0,95,0.00,,,0.24,WeatherCatV1.02B3,2013-10-16 23:42:00,
2013-10-16 18:47:00,67.0,65.5,29.96,NW,317,0.0,0.0,95,0.00,,,0.24,WeatherCatV1.02B3,2013-10-16 23:47:00,
2013-10-16 18:52:00,66.8,65.3,29.96,WNW,300,0.0,0.0,95,0.00,,,0.24,WeatherCatV1.02B3,2013-10-16 23:52:00,
2013-10-16 18:57:00,66.7,65.2,29.96,NW,319,0.0,0.0,95,0.00,,,0.24,WeatherCatV1.02B3,2013-10-16 23:57:00,
2013-10-16 19:02:00,66.6,65.1,29.96,NW,319,0.0,0.0,95,0.00,,,0.24,WeatherCatV1.02B3,2013-10-17 00:02:00,
2013-10-16 19:07:00,66.6,65.1,29.96,NW,322,0.0,2.0,95,0.00,,,0.24,WeatherCatV1.02B3,2013-10-17 00:07:00,
2013-10-16 19:12:00,66.4,64.9,29.96,NNW,339,0.0,1.0,95,0.00,,,0.24,WeatherCatV1.02B3,2013-10-17 00:12:00,
2013-10-16 19:17:00,66.4,64.9,29.96,NNW,339,0.0,1.0,95,0.00,,,0.24,WeatherCatV1.02B3,2013-10-17 00:17:00,
2013-10-16 19:22:00,66.3,64.8,29.96,NNW,338,0.0,0.0,95,0.00,,,0.24,WeatherCatV1.02B3,2013-10-17 00:22:00,
2013-10-16 19:27:00,66.3,64.8,29.97,NNW,334,0.0,2.0,95,0.00,,,0.24,WeatherCatV1.02B3,2013-10-17 00:27:00,
2013-10-16 19:33:00,66.1,64.6,29.97,NW,317,0.0,1.0,95,0.00,,,0.24,WeatherCatV1.02B3,2013-10-17 00:33:00,
2013-10-16 19:38:00,66.0,64.5,29.97,NW,322,0.0,1.0,95,0.00,,,0.24,WeatherCatV1.02B3,2013-10-17 00:38:00,
2013-10-16 19:43:00,65.9,64.4,29.97,NW,322,0.0,0.0,95,0.00,,,0.24,WeatherCatV1.02B3,2013-10-17 00:43:00,
2013-10-16 19:48:00,65.9,64.4,29.97,NW,322,0.0,0.0,95,0.00,,,0.24,WeatherCatV1.02B3,2013-10-17 00:48:00,
2013-10-16 19:53:00,65.8,64.3,29.98,NW,322,0.0,0.0,95,0.00,,,0.24,WeatherCatV1.02B3,2013-10-17 00:53:00,
2013-10-16 19:58:00,65.8,64.3,29.98,NW,322,0.0,0.0,95,0.00,,,0.24,WeatherCatV1.02B3,2013-10-17 00:58:00,
2013-10-16 20:03:00,65.7,64.5,29.98,NW,325,0.0,0.0,96,0.00,,,0.24,WeatherCatV1.02B3,2013-10-17 01:03:00,
2013-10-16 20:08:00,65.7,64.5,29.98,NW,325,0.0,0.0,96,0.00,,,0.24,WeatherCatV1.02B3,2013-10-17 01:08:00,
2013-10-16 20:13:00,65.7,64.5,29.98,NW,319,0.0,0.0,96,0.00,,,0.24,WeatherCatV1.02B3,2013-10-17 01:13:00,
2013-10-16 20:18:00,65.6,64.1,29.99,NW,319,0.0,3.0,95,0.00,,,0.24,WeatherCatV1.02B3,2013-10-17 01:18:00,
2013-10-16 20:23:00,65.5,64.3,29.99,NNW,335,0.0,3.0,96,0.00,,,0.24,WeatherCatV1.02B3,2013-10-17 01:23:00,
2013-10-16 20:28:00,65.4,63.9,29.99,North,0,0.0,0.0,95,0.00,,,0.24,WeatherCatV1.02B3,2013-10-17 01:28:00,
2013-10-16 20:33:00,65.3,63.8,29.99,North,0,0.0,0.0,95,0.00,,,0.24,WeatherCatV1.02B3,2013-10-17 01:33:00,
2013-10-16 20:38:00,65.3,63.8,29.99,North,0,0.0,0.0,95,0.00,,,0.24,WeatherCatV1.02B3,2013-10-17 01:38:00,
2013-10-16 20:43:00,65.1,63.6,29.99,NNW,339,0.0,3.0,95,0.00,,,0.24,WeatherCatV1.02B3,2013-10-17 01:43:00,
2013-10-16 20:48:00,65.0,63.5,29.99,NNW,339,0.0,0.0,95,0.00,,,0.24,WeatherCatV1.02B3,2013-10-17 01:48:00,
2013-10-16 20:53:00,65.0,63.5,29.99,NNW,341,0.0,3.0,95,0.00,,,0.24,WeatherCatV1.02B3,2013-10-17 01:53:00,
2013-10-16 20:58:00,64.9,63.4,29.99,NW,320,0.0,3.0,95,0.00,,,0.24,WeatherCatV1.02B3,2013-10-17 01:58:00,
2013-10-16 21:03:00,64.8,63.3,30.00,NW,313,0.0,1.0,95,0.00,,,0.24,WeatherCatV1.02B3,2013-10-17 02:03:00,
2013-10-16 21:08:00,64.6,63.1,30.00,NNW,333,0.0,1.0,95,0.00,,,0.24,WeatherCatV1.02B3,2013-10-17 02:08:00,
2013-10-16 21:13:00,64.5,63.0,30.00,NNW,335,1.0,1.0,95,0.00,,,0.24,WeatherCatV1.02B3,2013-10-17 02:13:00,
2013-10-16 21:18:00,64.5,63.0,29.99,NNE,16,1.0,2.0,95,0.00,,,0.24,WeatherCatV1.02B3,2013-10-17 02:18:00,
2013-10-16 21:23:00,64.5,63.0,29.99,NNE,16,0.0,0.0,95,0.00,,,0.24,WeatherCatV1.02B3,2013-10-17 02:23:00,
2013-10-16 21:28:00,64.5,63.0,30.00,NNE,16,0.0,0.0,95,0.00,,,0.24,WeatherCatV1.02B3,2013-10-17 02:28:00,
2013-10-16 21:33:00,64.5,63.0,29.99,NNE,16,0.0,1.0,95,0.00,,,0.24,WeatherCatV1.02B3,2013-10-17 02:33:00,
2013-10-16 21:38:00,64.5,63.0,30.00,NNE,16,0.0,0.0,95,0.00,,,0.24,WeatherCatV1.02B3,2013-10-17 02:38:00,
2013-10-16 21:43:00,64.5,63.0,29.99,NNE,16,0.0,0.0,95,0.00,,,0.24,WeatherCatV1.02B3,2013-10-17 02:43:00,
2013-10-16 21:48:00,64.5,63.0,29.99,NNE,16,0.0,0.0,95,0.00,,,0.24,WeatherCatV1.02B3,2013-10-17 02:48:00,
2013-10-16 21:53:00,64.5,63.0,29.99,NNE,16,0.0,0.0,95,0.00,,,0.24,WeatherCatV1.02B3,2013-10-17 02:53:00,
2013-10-16 21:58:00,64.6,63.1,29.99,NNE,16,0.0,0.0,95,0.00,,,0.24,WeatherCatV1.02B3,2013-10-17 02:58:00,
2013-10-16 22:03:00,64.5,63.0,29.99,NNE,16,0.0,0.0,95,0.00,,,0.24,WeatherCatV1.02B3,2013-10-17 03:03:00,
2013-10-16 22:08:00,64.5,63.0,29.99,NNE,16,0.0,0.0,95,0.00,,,0.24,WeatherCatV1.02B3,2013-10-17 03:08:00,
2013-10-16 22:13:00,64.5,63.0,29.99,NNE,16,0.0,0.0,95,0.00,,,0.24,WeatherCatV1.02B3,2013-10-17 03:13:00,
2013-10-16 22:18:00,64.5,63.0,29.99,NNE,16,0.0,0.0,95,0.00,,,0.24,WeatherCatV1.02B3,2013-10-17 03:18:00,
2013-10-16 22:23:00,64.5,63.0,29.99,NNE,16,0.0,0.0,95,0.00,,,0.24,WeatherCatV1.02B3,2013-10-17 03:23:00,
2013-10-16 22:28:00,64.5,63.0,29.99,NNE,16,0.0,0.0,95,0.00,,,0.24,WeatherCatV1.02B3,2013-10-17 03:28:00,
2013-10-16 22:33:00,64.6,63.1,29.99,NNE,16,0.0,0.0,95,0.00,,,0.24,WeatherCatV1.02B3,2013-10-17 03:33:00,
2013-10-16 22:38:00,64.6,63.1,29.99,NNE,16,0.0,0.0,95,0.00,,,0.24,WeatherCatV1.02B3,2013-10-17 03:38:00,
2013-10-16 22:43:00,64.6,63.1,29.99,NNE,16,0.0,0.0,95,0.00,,,0.24,WeatherCatV1.02B3,2013-10-17 03:43:00,
2013-10-16 22:48:00,64.6,63.1,29.99,NNE,16,0.0,0.0,95,0.00,,,0.24,WeatherCatV1.02B3,2013-10-17 03:48:00,
2013-10-16 22:53:00,64.6,63.1,29.99,NNE,16,0.0,0.0,95,0.00,,,0.24,WeatherCatV1.02B3,2013-10-17 03:53:00,
2013-10-16 22:58:00,64.5,63.3,29.99,NNE,16,0.0,2.0,96,0.00,,,0.24,WeatherCatV1.02B3,2013-10-17 03:58:00,
2013-10-16 23:01:00,64.5,63.3,29.99,NNE,16,0.0,0.0,96,0.00,,,0.24,WeatherCatV1.02B3,2013-10-17 04:01:00,
2013-10-16 23:06:00,64.4,63.2,29.99,NNE,16,0.0,0.0,96,0.00,,,0.24,WeatherCatV1.02B3,2013-10-17 04:06:00,
2013-10-16 23:11:00,64.4,63.2,29.98,NNE,16,0.0,0.0,96,0.00,,,0.24,WeatherCatV1.02B3,2013-10-17 04:11:00,
2013-10-16 23:16:00,64.4,63.2,29.98,NNE,16,0.0,0.0,96,0.00,,,0.24,WeatherCatV1.02B3,2013-10-17 04:16:00,
2013-10-16 23:21:00,64.3,63.1,29.99,NNE,16,0.0,0.0,96,0.00,,,0.24,WeatherCatV1.02B3,2013-10-17 04:21:00,
2013-10-16 23:26:00,64.3,63.1,29.98,NNE,16,0.0,0.0,96,0.00,,,0.24,WeatherCatV1.02B3,2013-10-17 04:26:00,
2013-10-16 23:31:00,64.3,63.1,29.99,NNE,16,0.0,2.0,96,0.00,,,0.24,WeatherCatV1.02B3,2013-10-17 04:31:00,
2013-10-16 23:36:00,64.3,63.1,29.98,NNE,16,0.0,0.0,96,0.00,,,0.24,WeatherCatV1.02B3,2013-10-17 04:36:00,
2013-10-16 23:41:00,64.3,63.1,29.98,NNE,16,0.0,0.0,96,0.00,,,0.24,WeatherCatV1.02B3,2013-10-17 04:41:00,
2013-10-16 23:46:00,64.3,63.1,29.98,NNE,16,0.0,0.0,96,0.00,,,0.24,WeatherCatV1.02B3,2013-10-17 04:46:00,
2013-10-16 23:51:00,64.4,63.2,29.98,NNE,16,0.0,0.0,96,0.00,,,0.24,WeatherCatV1.02B3,2013-10-17 04:51:00,
2013-10-16 23:56:00,64.4,63.2,29.98,NNE,16,0.0,0.0,96,0.00,,,0.24,WeatherCatV1.02B3,2013-10-17 04:56:00,